Location: Buttermere
(51.3333°N, 1.5167°W)
Time: 15:26:11
(UTC+00:00)

COSMO-SKYMED 1 - Pass Details

Date: 18 September 2020
Orbit: 621 x 623 km, 97.9° (Epoch: 28 October)

Event Time Altitude Azimuth Distance (km) Brightness Sun altitude
Rises 19:06:50 0° 8° (N) 2,919 6.1 -9.2°
Reaches altitude 10° 19:09:09 10° 0° (N) 2,007 5.4 -9.5°
Maximum altitude 19:13:10 38° 293° (WNW) 964 4.3 -10.2°
Drops below altitude 10° 19:17:11 10° 226° (SW) 1,992 5.6 -10.8°
Sets 19:19:28 0° 218° (SW) 2,894 6.3 -11.1°
